{"data":{"norad_id":48992,"epoch":"2026-05-25T05:07:19.239168Z","epoch_age_seconds":52467,"freshness":"FRESH","line1":"1 48992U 21060AB  26145.21341712  .00000023  00000+0  25543-4 0  9997","line2":"2 48992  87.9096 233.3496 0002194  92.9928 267.1454 13.16595508236607","mean_motion":13.16595508,"eccentricity":0.0002194,"inclination_deg":87.9096,"raan_deg":233.3496,"arg_perigee_deg":92.9928,"mean_anomaly_deg":267.1454,"bstar":2.5543e-5,"rev_number":23660,"period_min":109.3729996229,"perigee_km":1196.0897181108,"apogee_km":1199.4140181461,"semimajor_km":7575.8888681284,"source":"CELESTRAK","updated_at":"2026-05-25T13:38:22.477851Z"}}